CAPE
1610 1588 1749 1647 1667 1917 1765 1935 1920 2093 2251 2424 2267 2160 1964 2219 2439 2902 2240 1929 2285 2065 1953 1808 1708 1967 1520 1005 949 1012 1016 926 771 803 663 1047 1692 1984 1658 1876 959 1370 0
1417 1585 1778 1768 1689 1568 1661 1562 1663 1956 2203 2353 1822 1576 1846 1892 2181 2451 1903 1465 1906 1833 1672 1710 1717 1399 1716 1825 1320 1396 1278 1322 1113 1267 1707 1053 1503 1730 1923 1827 1335 598 767
1516 1507 1646 1736 1711 1643 1502 1680 1651 1736 1961 1947 2129 1623 1785 1775 1676 2137 2512 1666 1590 1554 1515 1654 1496 1527 1753 1624 1755 1378 1040 1035 1078 1276 1379 871 1362 2019 1944 2077 1522 1040 517
1521 1615 1720 1765 1739 1667 1678 1679 1671 1801 1834 1938 1965 2212 2299 1912 1675 1376 2048 1897 1587 1480 1525 1493 1458 1361 1615 1803 1624 1836 2005 1961 1293 1505 1186 2151 2461 1874 2143 1941 1477 2036 810
1630 1839 1992 2084 2020 2060 1906 1869 1862 1868 1742 1734 1780 1917 2127 2090 1770 2159 1855 1719 1672 1502 1312 1424 1422 1180 1198 1131 1714 1912 1745 2055 2737 3032 2271 1862 2077 2028 2037 2058 1644 1920 1780
1333 1340 1674 2080 2419 2299 2203 2243 2211 2162 1888 1567 1620 1757 1932 1738 839 602 927 1351 1300 1322 1526 1593 1625 1311 1101 293 15 8 109 1646 1352 1157 2393 2053 1483 1145 984 1089 955 968 822
1458 1554 1686 1881 2051 2031 2028 2174 2346 2432 2146 1888 1624 1605 1864 1972 597 601 408 1286 1653 1031 1794 1889 1667 1474 833 1605 116 0 0 0 0 960 1254 1012 755 136 0 125 296 289 375
1508 1665 1797 1928 1942 1897 2015 2094 2386 2511 2428 2238 1988 1846 1647 1732 848 615 134 1272 1632 1237 1570 1738 1879 1936 1148 1024 958 932 68 18 67 249 218 0 0 0 0 0 61 77 22
1313 1475 1812 1954 2482 2406 2490 2371 2316 2277 2372 2332 2226 2195 2005 1895 14 1 44 890 1090 1556 1689 1273 1252 1146 0 1 672 676 49 0 0 0 0 0 0 0 0 2 1 77 136
1485 1385 1609 1765 2070 2042 2117 2594 2289 2202 2247 2186 2393 2081 1539 2057 1 1 0 1113 1336 1424 100 4 0 0 0 0 103 284 151 0 0 0 0 0 0 0 0 0 0 6 16
1139 1081 1316 1345 1679 1748 1824 2587 2338 2282 2723 2963 2505 2034 1955 1269 7 1 1 649 857 196 4 5 0 0 2 0 0 249 201 0 0 0 0 1 0 0 0 0 0 0 0
1157 1003 487 491 578 883 1064 1075 1319 2058 2008 1643 936 344 212 80 14 1 1 6 21 25 6 7 2 1 0 0 0 0 0 0 0 1 5 1 0 0 0 0 0 0 0
905 904 190 18 3 29 140 97 225 40 32 19 21 9 9 7 4 1 1 0 0 2 2 1 0 0 0 0 0 0 0 0 0 2 2 0 0 0 0 0 0 0 0
850 193 2 3 4 2 1 4 32 13 11 7 4 2 3 5 4 3 3 1 0 1 1 2 0 0 0 0 0 0 0 2 12 6 0 0 0 0 0 0 0 0 0
73 10 6 5 3 4 4 3 4 3 2 8 4 1 1 2 1 1 1 2 2 0 1 1 1 0 0 0 0 0 0 0 0 0 0 0 0 0 0 0 0 0 0
5 6 4 4 6 6 6 5 0 0 1 1 2 0 0 1 1 2 1 1 0 0 3 4 2 0 0 0 0 0 0 0 0 0 0 0 0 0 0 0 0 0 0
4 5 3 4 7 8 5 4 3 1 0 1 1 2 1 1 1 1 2 0 0 0 0 0 0 0 0 0 0 0 0 0 0 0 0 0 0 0 0 0 0 0 0
13 0 3 9 7 5 5 4 3 1 1 0 1 0 1 1 2 2 0 0 0 0 0 0 0 0 0 0 0 0 0 0 0 0 0 0 0 0 0 0 0 0 0
23 24 6 23 33 9 39 14 0 0 0 0 0 0 0 0 0 0 0 2 0 0 0 0 0 0 0 0 0 0 0 0 0 0 0 0 0 0 0 0 0 0 0
22 2 5 8 6 1 19 18 4 2 1 0 0 0 0 0 0 0 0 0 0 0 0 0 0 0 0 0 0 0 0 0 0 0 0 0 0 0 0 0 0 0 0
14 7 1 14 10 3 0 0 0 0 0 0 0 0 0 0 0 0 0 0 0 0 0 0 0 0 0 0 0 0 0 0 0 0 0 0 0 0 0 0 0 0 0
3 3 4 2 1 1 26 3 0 0 0 0 0 0 0 0 0 0 0 0 0 0 0 0 0 0 0 0 0 0 3 5 1 0 0 0 0 0 0 0 0 0 0
6 14 0 11 1 0 0 0 0 0 0 0 0 0 0 0 0 0 0 0 0 0 0 0 6 21 29 23 13 10 13 24 5 0 1 1 1 2 1 2 1 1 8
11 0 1 0 0 0 0 0 0 0 0 0 0 0 0 0 0 0 0 0 0 0 0 3 13 41 58 34 25 19 21 18 1 0 0 0 1 0 0 0 1 0 7
54 7 1 0 0 0 0 0 0 0 0 0 0 0 0 0 0 0 0 0 0 0 0 0 4 10 30 51 46 27 0 0 7 0 0 0 0 0 0 0 1 5 6
2 0 0 1 4 0 0 0 0 0 0 0 0 0 0 0 0 0 0 0 0 0 0 0 0 0 4 44 66 6 0 0 0 0 0 0 0 0 0 0 0 20 28
CIN
-11 -4 -2 -0 -0 -0 -0 -0 -0 -0 -0 -0 -0 -0 -0 -0 -0 -0 -0 -0 -0 -0 -0 -0 -0 -0 -0 -0 -0 -0 -0 -0 -0 -0 -0 -0 -0 -0 -0 -0 -33 -0 -0
-11 -6 -5 -6 -0 -0 -0 -0 -0 -0 -0 -0 -0 -1 -0 -0 -0 -0 -0 -0 -0 -0 -0 -0 -0 -0 -0 -1 -0 -0 -0 -0 -0 -0 -0 -0 -1 -0 -0 -0 -0 -3 -0
-1 -1 -0 -5 -3 -0 -0 -0 -0 -0 -0 -0 -0 -0 -0 -0 -0 -0 -0 -0 -0 -0 -0 -0 -0 -0 -0 -0 -0 -0 -0 -0 -0 -0 -0 -0 -0 -0 -0 -0 -0 -0 -7
-0 -0 -0 -2 -5 -3 -1 -2 -0 -0 -0 -0 -0 -0 -0 -0 -0 -4 -0 -0 -0 -0 -0 -0 -0 -0 -0 -0 -0 -0 -0 -0 -0 -0 -0 -0 -0 -2 -0 -0 -0 -0 -0
-8 -0 -2 -1 -0 -0 -0 -2 -5 -0 -0 -0 -0 -0 -0 -0 -0 -0 -0 -0 -0 -0 -0 -0 -0 -12 -14 -20 -2 -0 -0 -0 -0 -0 -0 -6 -2 -0 -0 -0 -0 -2 -0
-53 -27 -8 -0 -0 -0 -0 -0 -0 -0 -2 -12 -7 -0 -0 -0 -4 -32 -21 -0 -0 -0 -0 -0 -0 -5 -8 -118 -255 -224 -168 -2 -4 -7 -0 -0 -0 -0 -0 -0 -0 -0 -0
-48 -41 -26 -10 -3 -5 -1 -0 -0 -0 -0 -3 -7 -1 -0 -0 -41 -52 -86 -5 -1 -0 -0 -0 -0 -0 -64 -2 -221 -0 -0 -0 -0 -10 -0 -0 -0 -8 -0 -17 -0 -0 -0
-21 -24 -15 -5 -7 -7 -2 -0 -0 -0 -0 -0 -1 -0 -0 -0 -34 -85 -180 -10 -0 -0 -0 -0 -0 -0 -10 -12 -3 -0 -127 -94 -16 -16 -28 -0 -0 -0 -0 -0 -4 -2 -6
-20 -22 -11 -8 -0 -0 -0 -0 -0 -0 -0 -0 -0 -0 -0 -0 -48 -0 -150 -2 -0 -0 -0 -0 -1 -0 -0 -9 -0 -0 -40 -0 -0 -0 -0 -0 -0 -0 -0 -2 -0 -0 -0
-0 -3 -3 -4 -0 -0 -0 -0 -0 -0 -0 -0 -0 -0 -0 -0 -0 -0 -0 -0 -0 -0 -89 -0 -0 -0 -0 -0 -31 -0 -0 -0 -0 -0 -0 -0 -0 -0 -0 -0 -0 -0 -0
-0 -0 -0 -0 -0 -0 -0 -0 -0 -0 -0 -0 -0 -0 -0 -7 -55 -0 -0 -36 -17 -60 -0 -0 -0 -0 -0 -0 -0 -0 -0 -0 -0 -0 -0 -0 -0 -0 -0 -0 -0 -0 -0
-0 -0 -30 -30 -16 -0 -0 -0 -0 -0 -0 -0 -16 -65 -85 -126 -63 -0 -0 -4 -42 -179 -0 -0 -0 -0 -0 -0 -0 -0 -0 -0 -0 -0 -0 -0 -0 -0 -0 -0 -0 -0 -0
-1 -0 -63 -150 -43 -93 -8 -8 -2 -62 -108 -153 -139 -0 -0 -0 -0 -0 -0 -0 -0 -0 -0 -0 -0 -0 -0 -0 -0 -0 -0 -0 -0 -0 -0 -0 -0 -0 -0 -0 -0 -0 -0
-0 -75 -0 -0 -0 -0 -0 -0 -0 -0 -0 -0 -0 -0 -0 -0 -0 -0 -0 -0 -0 -0 -0 -0 -0 -0 -0 -0 -0 -0 -0 -5 -2 -0 -0 -0 -0 -0 -0 -0 -0 -0 -0
-55 -68 -0 -0 -0 -0 -0 -0 -0 -0 -0 -0 -0 -0 -0 -0 -0 -0 -0 -0 -0 -0 -0 -0 -0 -0 -0 -0 -0 -0 -0 -0 -0 -0 -0 -0 -0 -0 -0 -0 -0 -0 -0
-0 -0 -0 -0 -0 -0 -0 -0 -0 -0 -0 -0 -0 -0 -0 -0 -0 -0 -0 -0 -0 -0 -0 -0 -0 -0 -0 -0 -0 -0 -0 -0 -0 -0 -0 -0 -0 -0 -0 -0 -0 -0 -0
-0 -0 -0 -0 -0 -0 -0 -0 -0 -0 -0 -0 -0 -0 -0 -0 -0 -0 -0 -0 -0 -0 -0 -0 -0 -0 -0 -0 -0 -0 -0 -0 -0 -0 -0 -0 -0 -0 -0 -0 -0 -0 -0
-0 -0 -0 -0 -0 -0 -0 -0 -0 -0 -0 -0 -0 -0 -0 -0 -0 -0 -0 -0 -0 -0 -0 -0 -0 -0 -0 -0 -0 -0 -0 -0 -0 -0 -0 -0 -0 -0 -0 -0 -0 -0 -0
-69 -139 -0 -77 -14 -0 -10 -0 -0 -0 -0 -0 -0 -0 -0 -0 -0 -0 -0 -0 -0 -0 -0 -0 -0 -0 -0 -0 -0 -0 -0 -0 -0 -0 -0 -0 -0 -0 -0 -0 -0 -0 -0
-97 -0 -0 -0 -0 -0 -27 -1 -0 -0 -0 -0 -0 -0 -0 -0 -0 -0 -0 -0 -0 -0 -0 -0 -0 -0 -0 -0 -0 -0 -0 -0 -0 -0 -0 -0 -0 -0 -0 -0 -0 -0 -0
-0 -0 -0 -0 -0 -0 -0 -0 -0 -0 -0 -0 -0 -0 -0 -0 -0 -0 -0 -0 -0 -0 -0 -0 -0 -0 -0 -0 -0 -0 -0 -0 -0 -0 -0 -0 -0 -0 -0 -0 -0 -0 -0
-0 -0 -0 -0 -0 -17 -35 -54 -0 -0 -0 -0 -0 -0 -0 -0 -0 -0 -0 -0 -0 -0 -0 -0 -0 -0 -0 -0 -0 -0 -0 -0 -0 -0 -0 -0 -0 -0 -0 -0 -0 -0 -0
-2 -0 -40 -59 -36 -0 -0 -0 -0 -0 -0 -0 -0 -0 -0 -0 -0 -0 -0 -0 -0 -0 -0 -0 -0 -0 -0 -0 -0 -0 -0 -0 -0 -0 -0 -0 -0 -0 -0 -0 -0 -0 -0
-39 -2 -9 -0 -0 -0 -0 -0 -0 -0 -0 -0 -0 -0 -0 -0 -0 -0 -0 -0 -0 -0 -0 -2 -0 -0 -0 -0 -0 -0 -0 -0 -0 -0 -0 -0 -0 -0 -0 -0 -0 -0 -0
-3 -17 -42 -0 -0 -0 -0 -0 -0 -0 -0 -0 -0 -0 -0 -0 -0 -0 -0 -0 -0 -0 -0 -0 -4 -2 -2 -0 -0 -0 -0 -0 -0 -0 -0 -0 -0 -0 -0 -0 -0 -0 -0
-4 -0 -0 -0 -0 -0 -0 -0 -0 -0 -0 -0 -0 -0 -0 -0 -0 -0 -0 -0 -0 -0 -0 -0 -0 -0 -0 -0 -0 -33 -0 -0 -0 -0 -0 -0 -0 -0 -0 -0 -0 -0 -0
Wind_Speed
14 14 13 11 12 11 10 10 9 8 7 9 9 9 8 9 8 7 6 4 7 6 6 5 6 4 7 7 5 4 3 4 7 8 4 2 5 4 1 0 6 3 9
13 13 14 13 13 13 12 12 11 10 10 8 8 9 10 10 10 11 10 8 8 9 7 5 7 7 6 6 7 4 6 7 8 7 8 7 3 3 4 4 2 1 1
13 13 13 14 14 14 14 13 12 11 11 11 11 11 10 9 9 11 10 10 9 8 7 7 7 7 8 6 7 7 6 4 5 6 7 9 7 4 4 4 4 2 1
12 13 13 14 15 15 14 14 14 13 13 12 11 10 11 11 10 10 10 9 8 8 8 8 8 9 9 8 8 7 6 7 6 7 7 7 3 4 5 6 3 3 2
12 13 14 13 14 14 14 14 14 14 13 13 13 12 11 11 10 10 9 9 8 8 9 9 10 6 1 5 6 7 7 6 6 5 6 4 4 4 4 4 5 5 1
13 15 14 13 14 14 13 14 14 14 14 13 14 13 12 10 6 6 6 8 8 9 9 10 9 6 8 5 4 2 2 4 2 3 5 5 4 3 2 3 3 3 1
11 12 13 14 14 14 13 13 14 15 14 14 14 14 14 13 8 10 9 9 8 10 9 10 7 6 4 7 7 9 8 6 3 5 6 4 3 5 5 4 3 4 2
11 12 13 14 15 15 14 14 14 14 14 13 14 14 14 12 11 11 10 11 9 10 10 9 9 8 5 5 5 5 5 4 5 4 4 5 4 4 3 3 4 3 3
11 11 11 13 14 14 14 15 14 13 13 13 13 14 13 13 9 10 11 11 10 10 7 2 5 6 5 6 8 6 3 5 9 11 11 10 9 10 8 3 1 4 2
11 11 11 11 11 12 13 14 13 12 12 12 13 13 13 12 10 10 8 6 8 5 5 5 9 7 4 6 6 7 7 6 7 8 6 4 3 6 9 7 4 5 4
10 8 9 10 11 11 10 11 11 11 11 10 11 9 8 8 10 11 9 7 6 6 6 4 4 6 2 2 4 2 4 9 7 5 4 3 2 3 4 5 5 4 2
9 5 3 3 4 3 6 3 5 7 8 8 9 7 5 7 5 10 9 4 6 8 7 6 6 7 5 7 7 9 12 9 5 4 3 1 2 1 4 3 4 5 6
6 6 4 3 2 4 1 2 2 2 3 3 4 5 5 4 3 8 10 12 11 9 6 11 11 9 7 10 9 8 6 5 5 3 3 2 2 4 4 4 4 4 5
6 7 5 4 3 5 4 2 3 4 4 5 5 5 5 4 5 6 8 10 17 12 13 7 7 9 7 7 6 6 4 2 3 5 4 3 3 3 2 0 1 1 2
6 7 5 6 5 6 6 5 3 4 1 5 6 6 8 6 6 8 9 8 8 11 11 8 3 4 4 3 4 5 4 3 5 4 4 2 2 1 3 3 3 1 2
6 6 5 6 5 5 5 6 17 8 16 17 16 6 5 9 18 19 18 18 16 9 7 7 7 4 4 4 6 5 4 4 4 3 3 3 3 3 3 2 2 3 3
8 9 7 6 6 5 5 6 8 11 23 19 17 19 15 13 17 15 19 14 11 7 5 6 6 6 5 3 5 3 6 6 2 3 3 4 3 3 2 3 3 3 3
9 8 8 9 9 7 7 8 8 7 8 7 14 11 14 15 15 12 14 9 6 6 4 5 7 7 5 5 5 5 4 4 3 3 3 4 3 3 4 4 4 4 4
9 7 8 10 10 10 9 12 10 9 8 7 6 8 9 10 10 9 6 8 9 8 8 8 7 7 6 6 5 4 3 4 3 3 4 4 3 2 4 3 4 3 4
8 12 8 9 9 7 6 8 9 9 9 8 9 10 9 9 8 7 6 7 7 7 8 8 7 8 7 6 5 5 5 5 4 3 3 3 2 3 3 2 3 3 3
6 8 10 8 8 7 8 7 7 7 9 9 10 8 5 7 8 8 7 7 7 7 8 9 8 7 6 6 5 5 4 4 3 2 2 2 1 3 1 2 2 2 5
6 9 8 8 6 5 9 9 8 9 10 10 9 6 5 5 8 7 8 7 7 7 7 6 6 6 6 6 5 5 4 4 3 1 2 2 1 1 1 2 2 2 3
8 5 8 9 8 9 4 5 8 8 9 9 10 8 6 7 7 7 6 6 6 5 5 5 5 5 5 6 6 5 3 4 4 2 0 1 2 2 2 3 3 3 2
5 7 9 11 11 10 10 9 7 6 7 6 7 5 5 5 5 6 4 5 4 4 3 4 4 6 7 7 6 6 5 4 3 5 1 2 1 4 3 3 2 4 1
10 10 10 9 10 9 8 8 7 7 6 6 6 5 5 4 5 5 4 4 3 3 3 1 2 4 7 10 10 10 11 9 4 6 2 1 3 3 4 4 3 1 2
8 9 8 8 7 9 8 8 8 7 7 6 5 5 5 5 5 5 4 4 3 3 1 0 1 4 5 8 12 10 10 12 7 1 1 2 2 2 2 3 2 4 3
Wind_Direction
200 201 206 207 210 215 223 221 227 222 223 222 224 225 225 225 219 220 241 261 234 246 265 253 264 284 290 301 279 274 296 276 288 304 340 127 297 291 335 214 175 231 122
206 204 204 207 212 209 220 227 224 227 218 218 220 227 231 223 228 223 226 238 221 239 242 262 261 266 294 254 261 274 294 298 279 287 318 302 227 333 316 292 264 281 48
208 211 213 211 214 221 217 217 225 224 231 230 214 231 234 230 232 229 232 230 238 242 250 271 275 279 274 304 295 293 278 272 293 288 285 299 316 336 258 239 239 197 195
226 216 221 220 223 225 222 219 217 218 221 227 232 229 227 229 236 241 229 229 245 249 256 263 274 278 284 281 274 291 290 286 270 269 283 285 270 276 266 289 288 203 266
227 221 225 231 227 226 230 224 221 218 218 224 227 231 232 231 225 213 216 220 242 250 259 262 262 294 353 292 285 278 289 273 279 285 281 312 291 302 332 337 307 0 24
220 230 234 223 226 223 227 229 224 223 217 215 220 229 234 238 203 176 223 247 250 254 258 264 273 236 231 204 173 98 339 268 272 244 274 281 360 334 313 313 319 319 296
245 238 234 228 224 224 225 227 225 224 218 214 219 220 221 228 194 182 185 229 242 260 261 265 262 263 267 190 151 126 116 96 45 319 307 321 327 28 341 307 336 310 18
248 243 239 237 221 223 221 221 223 223 223 217 214 218 227 229 174 183 189 241 238 250 251 259 260 259 237 222 174 128 70 41 359 326 57 77 51 308 274 334 332 345 116
257 258 249 237 236 224 218 224 225 223 221 221 221 217 222 230 158 164 186 242 239 239 239 273 266 213 161 230 189 177 179 123 83 71 79 82 64 43 12 341 260 281 105
256 264 266 251 238 226 225 221 219 218 218 224 220 218 218 228 148 159 199 230 220 199 115 94 48 30 17 287 260 248 180 167 141 133 118 124 110 78 40 39 341 345 8
261 272 270 262 248 240 244 231 222 220 219 215 221 211 203 167 171 173 193 194 195 160 152 140 97 71 48 301 313 220 150 136 114 124 105 59 20 57 61 56 20 349 351
246 242 271 317 331 273 213 202 237 203 187 181 179 171 172 169 166 182 173 211 154 153 134 117 111 100 73 65 78 93 95 102 108 117 114 131 151 114 97 88 65 46 60
227 216 143 115 31 358 82 116 91 88 118 142 168 158 138 136 114 129 138 121 107 106 100 95 105 102 103 75 77 112 131 123 137 144 124 132 114 84 146 160 143 121 105
189 140 139 146 96 46 46 11 184 172 172 168 164 157 148 142 128 119 117 107 100 100 106 93 99 102 88 96 75 57 49 23 143 142 140 113 133 148 121 57 60 34 273
126 131 125 115 102 86 59 15 11 27 317 180 177 165 159 160 141 133 131 124 121 120 125 119 97 74 86 80 97 108 104 101 89 92 90 90 76 75 60 7 3 330 325
133 127 121 115 111 101 98 74 41 40 83 76 56 78 59 97 114 102 95 99 108 110 106 109 117 122 125 125 105 109 130 83 63 65 75 61 41 34 26 46 7 0 357
129 132 120 123 113 108 104 95 96 61 60 56 79 85 77 102 87 106 114 110 119 120 120 107 100 96 87 143 149 114 77 66 55 73 67 41 25 79 319 27 10 1 34
133 134 131 145 126 118 115 103 97 86 91 70 42 80 81 93 96 95 95 101 91 80 106 123 125 129 135 115 105 102 106 108 98 90 78 51 31 13 35 33 26 5 355
143 136 149 139 133 140 136 127 113 104 96 98 97 80 82 84 103 126 166 159 153 143 130 123 126 126 120 112 100 94 84 75 68 84 78 58 43 35 54 43 112 29 283
136 118 126 128 125 115 104 110 113 117 123 124 125 123 133 148 156 169 151 120 124 127 128 127 131 130 129 129 134 132 136 142 124 116 76 81 69 36 65 63 35 20 38
139 130 121 120 114 110 113 117 138 164 151 137 130 123 60 153 139 141 134 137 143 136 143 138 138 132 138 138 138 133 132 124 138 149 157 119 33 79 55 69 32 27 27
149 130 127 114 124 139 145 156 154 146 132 131 121 132 304 163 133 136 132 138 135 142 144 144 154 161 158 157 165 159 145 135 130 148 169 175 170 115 14 334 335 349 337
84 127 116 133 121 112 130 126 129 128 127 130 136 148 169 127 127 132 138 136 147 151 151 175 179 177 177 182 185 182 189 133 109 62 120 192 221 313 319 312 320 319 344
266 153 153 127 145 139 138 135 125 123 130 141 135 148 132 135 132 113 140 141 152 158 171 195 214 210 188 206 193 190 202 122 125 113 335 13 314 171 285 309 306 17 282
189 149 145 140 150 133 134 134 137 146 142 143 153 157 152 148 136 138 134 143 140 157 143 201 221 203 220 212 211 202 110 107 14 64 167 15 350 337 315 299 338 273 331
153 156 155 151 147 138 142 143 146 146 140 133 130 127 129 131 119 112 110 102 118 101 354 66 3 277 251 215 215 155 133 135 157 7 241 186 230 263 284 274 235 260 167